When you browse on this site, cookies collect data to enhance your experience and personalize the content and advertising you see.
Visit our Privacy Policy to learn more. By continuing to use the site, you agree to this use of cookies and data.
  • In France
  • List of Countries
  • For 7 days
  • Water Temperature
  • Satellite Maps
  • Weather Map
  • Weather Widgets
  • user-avatar
    Login

    Hourly Weather Chakhansur

    Today, 25 April, Thursday

    Time Temperature Precipitation Wind Pressure Humidity
    00:00 +18°C° 0 mm 11 mps 719 mmHg 28%
    01:00 +17°C° 0 mm 11 mps 719 mmHg 28%
    02:00 +17°C° 0 mm 11 mps 719 mmHg 30%
    03:00 +16°C° 0 mm 11 mps 719 mmHg 31%
    04:00 +14°C° 0 mm 11 mps 719 mmHg 33%
    05:00 +14°C° 0 mm 11 mps 720 mmHg 33%
    06:00 +14°C° 0 mm 11 mps 720 mmHg 33%
    07:00 +14°C° 0 mm 11 mps 721 mmHg 33%
    08:00 +17°C° 0 mm 10 mps 721 mmHg 29%
    09:00 +19°C° 0 mm 10 mps 722 mmHg 26%
    10:00 +21°C° 0 mm 10 mps 722 mmHg 22%
    11:00 +23°C° 0 mm 9 mps 722 mmHg 20%
    12:00 +24°C° 0 mm 9 mps 722 mmHg 17%
    13:00 +27°C° 0 mm 8 mps 721 mmHg 15%
    14:00 +27°C° 0 mm 8 mps 721 mmHg 14%
    15:00 +27°C° 0 mm 7 mps 721 mmHg 14%
    16:00 +27°C° 0 mm 6 mps 720 mmHg 13%
    17:00 +27°C° 0 mm 6 mps 720 mmHg 14%
    18:00 +26°C° 0 mm 6 mps 720 mmHg 14%
    19:00 +24°C° 0 mm 6 mps 720 mmHg 15%
    20:00 +23°C° 0 mm 6 mps 720 mmHg 17%
    21:00 +23°C° 0 mm 6 mps 720 mmHg 18%
    22:00 +22°C° 0 mm 7 mps 720 mmHg 20%
    23:00 +21°C° 0 mm 7 mps 720 mmHg 23%

    Tomorrow, 26 April, Friday

    Time Temperature Precipitation Wind Pressure Humidity
    00:00 +20°C° 0 mm 8 mps 720 mmHg 27%
    01:00 +18°C° 0 mm 8 mps 720 mmHg 30%
    02:00 +18°C° 0 mm 8 mps 720 mmHg 31%
    03:00 +17°C° 0 mm 8 mps 720 mmHg 32%
    04:00 +17°C° 0 mm 8 mps 719 mmHg 33%
    05:00 +17°C° 0 mm 8 mps 720 mmHg 33%
    06:00 +17°C° 0 mm 8 mps 720 mmHg 33%
    07:00 +17°C° 0 mm 8 mps 721 mmHg 33%
    08:00 +18°C° 0 mm 8 mps 721 mmHg 29%
    09:00 +21°C° 0 mm 7 mps 721 mmHg 24%
    10:00 +23°C° 0 mm 7 mps 721 mmHg 20%
    11:00 +24°C° 0 mm 6 mps 721 mmHg 18%
    12:00 +27°C° 0 mm 6 mps 721 mmHg 15%
    13:00 +28°C° 0 mm 5 mps 721 mmHg 13%
    14:00 +28°C° 0 mm 5 mps 720 mmHg 13%
    15:00 +29°C° 0 mm 4 mps 720 mmHg 12%
    16:00 +29°C° 0 mm 4 mps 719 mmHg 12%
    17:00 +28°C° 0 mm 5 mps 719 mmHg 13%
    18:00 +28°C° 0 mm 5 mps 719 mmHg 13%
    19:00 +27°C° 0 mm 6 mps 719 mmHg 14%
    20:00 +26°C° 0 mm 6 mps 720 mmHg 16%
    21:00 +24°C° 0 mm 7 mps 720 mmHg 17%
    22:00 +23°C° 0 mm 7 mps 720 mmHg 19%
    23:00 +22°C° 0 mm 7 mps 720 mmHg 21%

    Day after tomorrow, 27 April, Saturday

    Time Temperature Precipitation Wind Pressure Humidity
    00:00 +21°C° 0 mm 8 mps 720 mmHg 24%
    01:00 +21°C° 0 mm 8 mps 720 mmHg 26%
    02:00 +20°C° 0 mm 8 mps 720 mmHg 27%
    03:00 +18°C° 0 mm 8 mps 720 mmHg 29%
    04:00 +18°C° 0 mm 7 mps 720 mmHg 30%
    05:00 +18°C° 0 mm 7 mps 720 mmHg 30%
    06:00 +18°C° 0 mm 7 mps 720 mmHg 29%
    07:00 +18°C° 0 mm 7 mps 721 mmHg 29%
    08:00 +21°C° 0 mm 7 mps 721 mmHg 25%
    09:00 +23°C° 0 mm 6 mps 721 mmHg 22%
    10:00 +24°C° 0 mm 6 mps 722 mmHg 19%
    11:00 +27°C° 0 mm 5 mps 721 mmHg 17%
    12:00 +28°C° 0 mm 5 mps 721 mmHg 15%
    13:00 +30°C° 0 mm 5 mps 720 mmHg 13%
    14:00 +30°C° 0 mm 5 mps 720 mmHg 12%
    15:00 +32°C° 0 mm 5 mps 719 mmHg 12%
    16:00 +32°C° 0 mm 5 mps 719 mmHg 11%
    17:00 +30°C° 0 mm 5 mps 719 mmHg 12%
    18:00 +30°C° 0 mm 5 mps 719 mmHg 13%
    19:00 +29°C° 0 mm 5 mps 719 mmHg 14%
    20:00 +28°C° 0 mm 6 mps 719 mmHg 15%
    21:00 +27°C° 0 mm 6 mps 720 mmHg 17%
    22:00 +26°C° 0 mm 6 mps 720 mmHg 18%
    23:00 +24°C° 0 mm 7 mps 719 mmHg 20%

    28 April, Sunday

    Time Temperature Precipitation Wind Pressure Humidity
    00:00 +23°C° 0 mm 7 mps 719 mmHg 22%
    01:00 +22°C° 0 mm 7 mps 719 mmHg 24%
    02:00 +22°C° 0 mm 7 mps 719 mmHg 25%
    03:00 +21°C° 0 mm 6 mps 719 mmHg 27%
    04:00 +21°C° 0 mm 6 mps 718 mmHg 28%
    05:00 +21°C° 0 mm 6 mps 719 mmHg 28%
    06:00 +21°C° 0 mm 6 mps 719 mmHg 28%
    07:00 +21°C° 0 mm 6 mps 719 mmHg 28%
    08:00 +23°C° 0 mm 6 mps 720 mmHg 24%
    09:00 +26°C° 0 mm 5 mps 720 mmHg 21%
    10:00 +28°C° 0 mm 5 mps 720 mmHg 17%
    11:00 +29°C° 0 mm 4 mps 720 mmHg 15%
    12:00 +32°C° 0 mm 4 mps 719 mmHg 13%
    13:00 +33°C° 0 mm 3 mps 718 mmHg 12%
    14:00 +33°C° 0 mm 3 mps 718 mmHg 11%
    15:00 +34°C° 0 mm 3 mps 717 mmHg 11%
    16:00 +34°C° 0 mm 3 mps 717 mmHg 10%
    17:00 +33°C° 0 mm 3 mps 717 mmHg 11%
    18:00 +33°C° 0 mm 3 mps 717 mmHg 11%
    19:00 +31°C° 0 mm 2 mps 717 mmHg 12%
    20:00 +30°C° 0 mm 2 mps 717 mmHg 12%
    21:00 +30°C° 0 mm 2 mps 717 mmHg 13%
    22:00 +29°C° 0 mm 2 mps 717 mmHg 13%
    23:00 +28°C° 0 mm 2 mps 716 mmHg 14%

    29 April, Monday

    Time Temperature Precipitation Wind Pressure Humidity
    00:00 +27°C° 0 mm 3 mps 716 mmHg 15%
    01:00 +26°C° 0 mm 3 mps 715 mmHg 16%
    02:00 +26°C° 0 mm 3 mps 715 mmHg 17%
    03:00 +25°C° 0 mm 3 mps 714 mmHg 17%
    04:00 +25°C° 0 mm 3 mps 714 mmHg 18%
    05:00 +25°C° 0 mm 2 mps 714 mmHg 18%
    06:00 +26°C° 0 mm 2 mps 715 mmHg 17%
    07:00 +26°C° 0 mm 2 mps 715 mmHg 16%
    08:00 +28°C° 0 mm 2 mps 715 mmHg 15%
    09:00 +29°C° 0 mm 2 mps 715 mmHg 13%
    10:00 +31°C° 0 mm 3 mps 715 mmHg 12%
    11:00 +33°C° 0 mm 3 mps 715 mmHg 11%
    12:00 +34°C° 0 mm 3 mps 714 mmHg 10%
    13:00 +35°C° 0 mm 4 mps 714 mmHg 10%
    14:00 +35°C° 0 mm 5 mps 713 mmHg 10%
    15:00 +35°C° 0 mm 7 mps 713 mmHg 10%
    16:00 +35°C° 0 mm 8 mps 713 mmHg 11%
    17:00 +34°C° 0 mm 8 mps 713 mmHg 12%
    18:00 +33°C° 0 mm 9 mps 714 mmHg 13%
    19:00 +32°C° 0 mm 10 mps 714 mmHg 15%
    20:00 +31°C° 0 mm 9 mps 714 mmHg 18%
    21:00 +28°C° 0 mm 9 mps 715 mmHg 21%
    22:00 +27°C° 0 mm 9 mps 715 mmHg 24%
    23:00 +26°C° 0 mm 9 mps 715 mmHg 25%

    30 April, Tuesday

    Time Temperature Precipitation Wind Pressure Humidity
    00:00 +24°C° 0 mm 9 mps 715 mmHg 26%
    01:00 +24°C° 0 mm 9 mps 715 mmHg 28%
    02:00 +23°C° 0 mm 9 mps 715 mmHg 28%
    03:00 +23°C° 0 mm 9 mps 715 mmHg 29%
    04:00 +22°C° 0 mm 9 mps 715 mmHg 29%
    05:00 +22°C° 0 mm 9 mps 716 mmHg 29%
    06:00 +22°C° 0 mm 10 mps 716 mmHg 29%
    07:00 +23°C° 0 mm 10 mps 717 mmHg 28%
    08:00 +24°C° 0 mm 10 mps 717 mmHg 25%
    09:00 +27°C° 0 mm 10 mps 717 mmHg 22%
    10:00 +29°C° 0 mm 9 mps 717 mmHg 19%
    11:00 +31°C° 0 mm 9 mps 717 mmHg 17%
    12:00 +33°C° 0 mm 9 mps 716 mmHg 14%
    13:00 +34°C° 0 mm 9 mps 716 mmHg 12%
    14:00 +34°C° 0 mm 9 mps 715 mmHg 11%
    15:00 +34°C° 0 mm 10 mps 715 mmHg 10%
    16:00 +34°C° 0 mm 10 mps 715 mmHg 9%
    17:00 +33°C° 0 mm 9 mps 715 mmHg 10%
    18:00 +32°C° 0 mm 8 mps 715 mmHg 10%
    19:00 +32°C° 0 mm 7 mps 715 mmHg 11%
    20:00 +30°C° 0 mm 7 mps 715 mmHg 12%
    21:00 +29°C° 0 mm 7 mps 715 mmHg 14%
    22:00 +28°C° 0 mm 7 mps 715 mmHg 15%
    23:00 +27°C° 0 mm 6 mps 715 mmHg 17%
    Show more